Regional Weather Roundup
Issued by NWS

Home | Current Version | Previous Version | Text Only | Print | Product List | Glossary On
Versions: 1 2 3 4 5 6 7 8 9 10 11 12 13 14 15 16 17 18 19 20 21 22 23 24 25 26 27 28 29 30 31 32 33 34 35 36 37 38 39 40 41 42 43 44 45 46 47 48 49 50
000
ASUS44 KJAN 201310
RWRMS

MISSISSIPPI HOURLY WEATHER ROUNDUP
NATIONAL WEATHER SERVICE JACKSON MS
800 AM CDT WED AUG 20 2014

NOTE: "FAIR: INDICATES FEW OR NO CLOUDS BELOW 12,000 FEET WITH NO
SIGNIFICANT WEATHER AND/OR OBSTRUCTIONS TO VISIBILITY.

MSZ001>002-007>008-010>013-018>021-025>028-034>036-201400-
NORTHWEST MISSISSIPPI

CITY           SKY/WX    TMP DP  RH WIND       PRES   REMARKS
CLARKSDALE     FAIR      77  75  94 CALM      30.02R
CLEVELAND      FAIR      76  74  96 SW3       30.02R
GREENWOOD      SUNNY     76  73  91 S6        30.03R
GREENVILLE       N/A    N/A N/A N/A MISG      30.02R
GRENADA        FAIR      75  72  88 W6        30.03R
OLIVE BRANCH   SUNNY     75  73  94 SW7       30.01R
OXFORD           N/A    N/A N/A N/A MISG        N/A
TUNICA         SUNNY     77  73  88 SW5       30.01R
$$

MSZ003>006-009-014>017-022>024-029>033-037>039-201400-
NORTHEAST MISSISSIPPI

CITY           SKY/WX    TMP DP  RH WIND       PRES   REMARKS
BELMONT        FAIR      76  74  94 SW7       30.03R
COLUMBUS AFB   SUNNY     78  72  81 CALM      30.04R
CORINTH        FAIR      79  72  78 SW6       30.00R
GOLDN TRIANGLE SUNNY     75  70  83 CALM      30.04R
STARKVILLE     FAIR      77  72  83 CALM      30.03R
TUPELO         SUNNY     79  74  84 W5        30.02R
$$

MSZ040-058-201400-
CENTRAL MISSISSIPPI

CITY           SKY/WX    TMP DP  RH WIND       PRES   REMARKS
JACKSON INTL   MOSUNNY   77  73  87 SW3       30.06R
JACKSON HAWKNS MOSUNNY   77  72  84 SW6       30.06R
MERIDIAN KEY   SUNNY     73  71  93 S3        30.06R
MERIDIAN NAS   SUNNY     76  71  85 W3        30.05R
RAYMOND        FAIR      75  70  83 S3        30.06R HAZE
VICKSBURG      MOSUNNY   76  73  91 S5        30.05R
$$

MSZ059>079-201400-
SOUTH MISSISSIPPI

CITY           SKY/WX    TMP DP  RH WIND       PRES   REMARKS
BROOKHAVEN     FAIR      77  73  88 CALM      30.09R
COLUMBIA       FAIR      77  75  94 MISG      30.06R
HATTIESBURG    SUNNY     78  73  84 CALM      30.07R
MCCOMB         PTSUNNY   75  71  87 CALM      30.07R
NATCHEZ        CLOUDY    75  72  88 CALM      30.06R
PINE BELT      SUNNY     77  72  83 CALM      30.08R
$$

MSZ080>082-201400-
COASTAL MISSISSIPPI

CITY           SKY/WX    TMP DP  RH WIND       PRES   REMARKS
BAY ST LOUIS   SUNNY    N/A N/A N/A CALM      30.06
BILOXI         MOSUNNY   81  76  84 CALM      30.06R
PASCAGOULA     SUNNY     81  76  84 NW3       30.06R
GULFPORT       MOSUNNY   81  76  84 CALM      30.06R
$$



USA.gov is the U.S. government's official web portal to all federal, state and local government web resources and services.